User: anonymous   Login
Location: Unspecified
(0.0000°N, 0.0000°E)
Time: 01:57:14
(UTC+00:00)
Language:

UOSAT-12 - Orbit

View from above orbital plane
View from above orbital plane
View from above satellite
View from above satellite

Ground track
Ground track

The orbit data is extracted from the following two-line orbital elements,

1 25693U 99021A   20328.22687395 -.00000039 +00000-0 +13907-4 0  9990
2 25693 064.5559 217.0567 0032327 314.1000 045.7446 14.80906065165691
Epoch (UTC): 23 November 2020 05:26:41
Eccentricity: 0.0032327
inclination: 64.5559°
perigee height: 604 km
apogee height: 649 km
right ascension of ascending node: 217.0567°
argument of perigee: 314.1000°
revolutions per day: 14.80906065
mean anomaly at epoch: 45.7446°
orbit number at epoch: 16569

The dashed part of the orbit path shows where the satellite is in the earth's shadow,  

DLR